THOR ABLESTAR DEB, 405

Orbit data source: Space-Track

THOR ABLESTAR DEB, 405 is space debris in LEO originally from a launch on Thu, 29 Jun 1961 UTC launched from the Air Force Eastern Test Range (AFETR). Debris objects in space refer to the collection of defunct objects orbiting the Earth. Examples of debris include non-operational satellites, rocket bodies, and fragments generated from explosions, collisions, or faulty payload assembly.

Loading next visibility...
Identifier
405, 1961-015EE
Orbit
LEO
Country
Flag of USUS
Related business
Manufacturer
Unknown
Mission
Spacecraft
Bus & Motor
Unknown
Mass
Unknown
Launch date (UTC)
1961-06-29 (64 years ago)
Launch vehicle
Unknown
Launch site
Air Force Eastern Test Range (AFETR)
Object type
Payload
Rocket body
Debris
Shape & HBR
Unknown shape, 0.3 m
Radar Cross Section
Small (<0.1 m²)

Expand to show TLE details & history
Last TLE update: 17 hours ago

TLE from 17 hours ago
0 THOR ABLESTAR DEB
1 00405U 61015EE  25307.54498734  .00000251  00000-0  37780-3 0  9999
2 00405  66.8935 329.6417 0087584 331.0200 194.8960 13.66612966201311
Epoch: 2025-11-03T13:04Z
TLE epoch observation values (Epoch: 2025-11-03T13:04:46.906Z)
Latitude
13.14658°
Longitude
-95.28846°
Altitude
1,075.661 km
Speed
7.285 km/s
True Right ascension
09h 35m 48s
True Declination
13° 04' 26"
Sunlit
Object was in daylight at epoch
Visualization orbit readout
Latitude
Unknown
Longitude
Unknown
Altitude
Unknown
Speed
Unknown
Apparent Right ascension
Unknown
Apparent Declination
Unknown
Sunlit
N/A
Visualization observer readout
Local Sidereal Time
02:15:27
Azimuth
Unknown
Elevation
Unknown
Doppler factor
Unknown
Orbital elements
Apogee altitude
1,074.867 km
Perigee altitude
945.448 km
Semi-major axis
7,388.295 km
Eccentricity
0.00876
Inclination
66.8935°
RAAN
329.6417°
Arg. of periapsis
331.02°
True anomaly
194.6407°
Mean anomaly
194.896°
Eccentric anomaly
194.76808°
Mean motion
3.41764 °/min
Orbital period
105.34 mins
BSTAR
0.0003778

Documentation

Showing up to 5 results
|